Location: ??
(35.5672°N, 139.6509°E)
Time: 13:11:49
(UTC+00:00)

Meteor 1-23 Rocket - Pass Details

Date: 03 August 2024
Orbit: 842 x 882 km, 81.3° (Epoch: 08 September)

Event Time Altitude Azimuth Distance (km) Brightness Sun altitude
Rises 16:37:51 0° 351° (N) 3,426 8.0 -31.1°
Reaches altitude 10° 16:40:17 10° 351° (N) 2,482 7.2 -30.8°
Enters shadow 16:44:57 63° 349° (N) 942 4.5 -30.3°
